Hourly Weather Dzialosze

Today, 9 May, Sunday

Time Temperature Precipitation Wind Pressure Humidity
00:00 +4°C° 0 mm 3 mps 746 mmHg 80%
01:00 +3°C° 0 mm 3 mps 746 mmHg 81%
02:00 +3°C° 0 mm 4 mps 746 mmHg 79%
03:00 +3°C° 0 mm 4 mps 746 mmHg 78%
04:00 +3°C° 0 mm 4 mps 745 mmHg 77%
05:00 +5°C° 0 mm 4 mps 745 mmHg 74%
06:00 +6°C° 0 mm 5 mps 745 mmHg 71%
07:00 +8°C° 0 mm 5 mps 745 mmHg 68%
08:00 +10°C° 0 mm 5 mps 745 mmHg 63%
09:00 +13°C° 0 mm 5 mps 745 mmHg 58%
10:00 +15°C° 0 mm 5 mps 745 mmHg 53%
11:00 +17°C° 0 mm 6 mps 745 mmHg 53%
12:00 +19°C° 0 mm 6 mps 744 mmHg 52%
13:00 +20°C° 0 mm 6 mps 744 mmHg 51%
14:00 +20°C° 0 mm 6 mps 744 mmHg 53%
15:00 +20°C° 0 mm 5 mps 744 mmHg 56%
16:00 +20°C° 0 mm 5 mps 743 mmHg 59%
17:00 +19°C° 0 mm 5 mps 743 mmHg 62%
18:00 +16°C° 0 mm 5 mps 743 mmHg 65%
19:00 +14°C° 0 mm 6 mps 743 mmHg 68%
20:00 +14°C° 0 mm 6 mps 743 mmHg 65%
21:00 +13°C° 0 mm 6 mps 743 mmHg 62%
22:00 +12°C° 0 mm 7 mps 743 mmHg 59%
23:00 +11°C° 0 mm 6 mps 743 mmHg 60%

Tomorrow, 10 May, Monday

Time Temperature Precipitation Wind Pressure Humidity
00:00 +11°C° 0 mm 6 mps 743 mmHg 60%
01:00 +10°C° 0 mm 6 mps 743 mmHg 61%
02:00 +10°C° 0 mm 6 mps 743 mmHg 63%
03:00 +9°C° 0 mm 6 mps 742 mmHg 65%
04:00 +9°C° 0 mm 6 mps 742 mmHg 66%
05:00 +10°C° 0 mm 6 mps 742 mmHg 65%
06:00 +11°C° 0 mm 6 mps 742 mmHg 64%
07:00 +14°C° 0 mm 6 mps 742 mmHg 63%
08:00 +16°C° 0 mm 6 mps 742 mmHg 58%
09:00 +17°C° 0 mm 7 mps 742 mmHg 54%
10:00 +20°C° 0 mm 8 mps 742 mmHg 49%
11:00 +21°C° 0 mm 8 mps 742 mmHg 50%
12:00 +22°C° 0 mm 8 mps 742 mmHg 51%
13:00 +23°C° 0 mm 8 mps 742 mmHg 52%
14:00 +23°C° 0 mm 7 mps 742 mmHg 55%
15:00 +22°C° 0 mm 7 mps 742 mmHg 58%
16:00 +22°C° 0 mm 6 mps 742 mmHg 60%
17:00 +21°C° 0 mm 6 mps 742 mmHg 65%
18:00 +19°C° 0 mm 5 mps 742 mmHg 70%
19:00 +18°C° 0 mm 4 mps 742 mmHg 75%
20:00 +17°C° 0 mm 4 mps 742 mmHg 77%
21:00 +15°C° 0 mm 4 mps 742 mmHg 78%
22:00 +14°C° 0 mm 3 mps 742 mmHg 80%
23:00 +14°C° 0 mm 4 mps 742 mmHg 80%

Day after tomorrow, 11 May, Tuesday

Time Temperature Precipitation Wind Pressure Humidity
00:00 +14°C° 0 mm 4 mps 741 mmHg 80%
01:00 +13°C° 0 mm 4 mps 741 mmHg 80%
02:00 +13°C° 0 mm 4 mps 741 mmHg 79%
03:00 +13°C° 0 mm 5 mps 740 mmHg 77%
04:00 +13°C° 0 mm 5 mps 740 mmHg 76%
05:00 +15°C° 0 mm 5 mps 740 mmHg 74%
06:00 +16°C° 0 mm 6 mps 740 mmHg 72%
07:00 +17°C° 0 mm 6 mps 740 mmHg 70%
08:00 +20°C° 0 mm 7 mps 740 mmHg 65%
09:00 +22°C° 0 mm 7 mps 740 mmHg 60%
10:00 +23°C° 0 mm 8 mps 740 mmHg 55%
11:00 +24°C° 0 mm 8 mps 739 mmHg 54%
12:00 +26°C° 0 mm 8 mps 739 mmHg 53%
13:00 +27°C° 0 mm 8 mps 739 mmHg 52%
14:00 +26°C° 0 mm 7 mps 739 mmHg 53%
15:00 +26°C° 0 mm 6 mps 739 mmHg 54%
16:00 +26°C° 0 mm 6 mps 739 mmHg 56%
17:00 +23°C° 0 mm 5 mps 738 mmHg 62%
18:00 +22°C° 0 mm 3 mps 738 mmHg 68%
19:00 +20°C° 0 mm 2 mps 738 mmHg 74%
20:00 +19°C° 0 mm 3 mps 738 mmHg 77%
21:00 +18°C° 0 mm 4 mps 738 mmHg 80%
22:00 +17°C° 0 mm 4 mps 738 mmHg 83%
23:00 +17°C° 0 mm 4 mps 738 mmHg 85%

12 May, Wednesday

Time Temperature Precipitation Wind Pressure Humidity
00:00 +15°C° 0 mm 4 mps 738 mmHg 86%
01:00 +14°C° 0 mm 4 mps 738 mmHg 88%
02:00 +13°C° 0 mm 4 mps 737 mmHg 88%
03:00 +13°C° 0 mm 4 mps 737 mmHg 89%
04:00 +12°C° 0 mm 4 mps 737 mmHg 89%
05:00 +13°C° 0 mm 4 mps 737 mmHg 85%
06:00 +14°C° 0 mm 5 mps 737 mmHg 81%
07:00 +15°C° 0 mm 5 mps 737 mmHg 76%
08:00 +17°C° 0 mm 5 mps 737 mmHg 71%
09:00 +20°C° 0 mm 5 mps 737 mmHg 67%
10:00 +21°C° 0 mm 5 mps 737 mmHg 62%
11:00 +22°C° 0 mm 4 mps 737 mmHg 59%
12:00 +23°C° 0 mm 4 mps 737 mmHg 57%
13:00 +25°C° 0 mm 4 mps 736 mmHg 55%
14:00 +25°C° 0 mm 5 mps 736 mmHg 57%
15:00 +23°C° 0 mm 5 mps 736 mmHg 59%
16:00 +23°C° 0 mm 6 mps 736 mmHg 62%
17:00 +21°C° 0 mm 6 mps 736 mmHg 64%
18:00 +20°C° 0 mm 6 mps 736 mmHg 67%
19:00 +17°C° 0 mm 6 mps 736 mmHg 69%
20:00 +16°C° 0 mm 5 mps 736 mmHg 72%
21:00 +14°C° 0 mm 4 mps 736 mmHg 74%
22:00 +13°C° 0 mm 3 mps 736 mmHg 77%
23:00 +12°C° 0 mm 3 mps 736 mmHg 80%

13 May, Thursday

Time Temperature Precipitation Wind Pressure Humidity
00:00 +11°C° 0 mm 3 mps 736 mmHg 83%
01:00 +11°C° 0 mm 3 mps 736 mmHg 86%
02:00 +10°C° 0 mm 3 mps 736 mmHg 87%
03:00 +9°C° 0 mm 3 mps 736 mmHg 88%
04:00 +9°C° 0 mm 3 mps 736 mmHg 89%
05:00 +10°C° 0 mm 4 mps 736 mmHg 84%
06:00 +11°C° 0 mm 4 mps 736 mmHg 78%
07:00 +12°C° 0 mm 5 mps 736 mmHg 73%
08:00 +13°C° 0 mm 5 mps 736 mmHg 68%
09:00 +14°C° 0 mm 5 mps 736 mmHg 63%
10:00 +16°C° 0 mm 5 mps 736 mmHg 58%
11:00 +17°C° 0 mm 4 mps 736 mmHg 55%
12:00 +18°C° 0 mm 4 mps 736 mmHg 52%
13:00 +18°C° 0 mm 4 mps 736 mmHg 49%
14:00 +17°C° 0 mm 4 mps 736 mmHg 55%
15:00 +16°C° 0 mm 3 mps 736 mmHg 62%
16:00 +14°C° 0 mm 3 mps 736 mmHg 69%
17:00 +14°C° 0 mm 3 mps 736 mmHg 72%
18:00 +14°C° 0 mm 2 mps 736 mmHg 75%
19:00 +14°C° 0 mm 2 mps 736 mmHg 78%
20:00 +13°C° 0 mm 2 mps 736 mmHg 80%
21:00 +12°C° 0 mm 1 mps 736 mmHg 83%
22:00 +11°C° 0 mm 1 mps 736 mmHg 86%
23:00 +10°C° 0 mm 2 mps 736 mmHg 87%

14 May, Friday

Time Temperature Precipitation Wind Pressure Humidity
00:00 +10°C° 0 mm 2 mps 736 mmHg 88%
01:00 +9°C° 0 mm 2 mps 737 mmHg 89%
02:00 +9°C° 0 mm 2 mps 737 mmHg 90%
03:00 +9°C° 0 mm 2 mps 737 mmHg 92%
04:00 +9°C° 0 mm 1 mps 737 mmHg 93%
05:00 +10°C° 0 mm 1 mps 737 mmHg 91%
06:00 +11°C° 0 mm 1 mps 737 mmHg 88%
07:00 +12°C° 0 mm 1 mps 737 mmHg 85%
08:00 +13°C° 0.2 mm 2 mps 737 mmHg 80%
09:00 +14°C° 0.2 mm 2 mps 737 mmHg 75%
10:00 +14°C° 0.2 mm 3 mps 737 mmHg 70%
11:00 +16°C° 0.3 mm 3 mps 738 mmHg 69%
12:00 +16°C° 0.3 mm 3 mps 738 mmHg 67%
13:00 +17°C° 0.3 mm 2 mps 738 mmHg 66%
14:00 +17°C° 0.4 mm 3 mps 738 mmHg 67%
15:00 +17°C° 0.4 mm 3 mps 738 mmHg 68%
16:00 +16°C° 0.4 mm 3 mps 738 mmHg 69%
17:00 +14°C° 0.3 mm 3 mps 738 mmHg 75%
18:00 +13°C° 0.3 mm 4 mps 738 mmHg 81%
19:00 +12°C° 0.3 mm 4 mps 739 mmHg 88%
20:00 +11°C° 0 mm 4 mps 739 mmHg 90%
21:00 +10°C° 0 mm 3 mps 739 mmHg 93%
22:00 +9°C° 0 mm 3 mps 740 mmHg 95%
23:00 +9°C° 0 mm 2 mps 740 mmHg 94%
Show more